Regional Weather Roundup
Issued by NWS

Home | Current Version | Previous Version | Graphics & Text | Print | Product List | Glossary On
Versions: 1 2 3 4 5 6 7 8 9 10 11 12 13 14 15 16 17 18 19 20 21 22 23 24 25 26 27 28 29 30 31 32 33 34 35 36 37 38 39 40 41 42 43 44 45 46 47 48 49 50
000
ASUS43 KLMK 211710
RWRKY
KENTUCKY REGIONAL WEATHER ROUNDUP
NATIONAL WEATHER SERVICE LOUISVILLE KY
1200 PM EST TUE FEB 21 2017

NOTE "FAIR" INDICATES FEW OR NO CLOUDS BELOW 12,000 FEET
WITH NO SIGNIFICANT WEATHER AND/OR OBSTRUCTIONS TO VISIBILITY.

KYZ001>023-026-027-061>063-070>075-211800-
WESTERN AND SOUTH CENTRAL KENTUCKY

CITY           SKY/WX    TMP DP  RH WIND       PRES   REMARKS
PADUCAH        CLOUDY    62  53  72 E6        29.92R
HENDERSON      CLOUDY    59  48  67 NE5       29.96F
OWENSBORO      CLOUDY    65  51  60 S3        29.98F
HOPKINSVILLE   CLOUDY    63  54  72 SE12      29.92F
BOWLING GREEN  CLOUDY    70  50  49 S8        29.99F
GLASGOW        CLOUDY    69  48  47 S10       30.00F
$$

KYZ024-025-028>034-038-045-046-053-211800-
NORTH CENTRAL KENTUCKY

CITY           SKY/WX    TMP DP  RH WIND       PRES   REMARKS
LOUISVILLE/SDF CLOUDY    70  46  42 S8        29.99F
LOUISVILLE/LOU PTSUNNY   68  48  48 S7        30.01F
FORT KNOX      CLOUDY    69  49  49 S12       29.98F
$$

KYZ035>037-039>044-047>052-055>060-089>105-211800-
NORTHEAST KENTUCKY

CITY           SKY/WX    TMP DP  RH WIND       PRES   REMARKS
LEXINGTON      PTSUNNY   69  44  40 S12       30.04F
COVINGTON      CLOUDY    65  47  52 SW8       30.02S
FRANKFORT      CLOUDY    72  47  40 S12       30.01F
$$

KYZ054-064>069-076>088-106>120-211800-
SOUTHEAST KENTUCKY

CITY           SKY/WX    TMP DP  RH WIND       PRES   REMARKS
JACKSON        SUNNY     70  37  29 S8        30.08F
LONDON         SUNNY     67  37  33 S13       30.07S
SOMERSET       PTSUNNY   64  43  45 S7        30.07S
MIDDLESBORO    MOSUNNY   66  42  40 CALM      30.09S
MONTICELLO     MOSUNNY   71  49  45 SE8G23    30.06S
$$




USA.gov is the U.S. government's official web portal to all federal, state and local government web resources and services.